Weather History for KPSF - April, 2013

Change the Weather History Date:

Tuesday, April 2, 2013

  Actual Average Record
Temperature  
Mean Temperature 28 °F 38 °F  
Max Temperature 33 °F 49 °F 68 °F (1967)
Min Temperature 23 °F 28 °F 13 °F (1964)
Degree Days  
Heating Degree Days 37 27  
Month to date heating degree days 62 54  
Since 1 July heating degree days 6056 6461  
Cooling Degree Days 0 0  
Month to date cooling degree days 0 0  
Year to date cooling degree days 0 0  
Moisture  
Dew Point 16 °F    
Average Humidity 57    
Maximum Humidity 74    
Minimum Humidity 39    
Precipitation  
Precipitation T in 0.17 in 2.14 in (1970)
Month to date precipitation 0.15 0.34  
Year to date precipitation 5.57 9.31  
Sea Level Pressure  
Sea Level Pressure 29.87 in    
Wind  
Wind Speed 16 mph (West)    
Max Wind Speed 31 mph    
Max Gust Speed 43 mph    
Visibility 5 miles    
Events Snow    
T = Trace of Precipitation, MM = Missing Value Source: NWS Daily Summary

Daily Weather History Graph

Daily Weather History Graph

Search for Another Location

Airport or City:

Trip Planner

Search our weather history database for the weather conditions in past years. The results will help you decide how hot, cold, wet, or windy it might be!

Date:

Astronomy

Apr. 02, 2013 Rise Set
Actual Time 6:33 AM EDT 7:20 PM EDT
Civil Twilight 6:05 AM EDT 7:48 PM EDT
Nautical Twilight 5:31 AM EDT 8:22 PM EDT
Astronomical Twilight 4:56 AM EDT 8:57 PM EDT
Moon 1:27 AM EDT (4/2) 11:16 AM EDT (4/2)
Length of Visible Light 13h 43m
Length of Day
12h 46m
Waning Gibbous, 56% of the Moon is Illuminated
Apr 2
Waning Gibbous
Apr 3
Last Quarter
Apr 10
New
Apr 18
First Quarter
Apr 25
Full

Hourly Weather History & Observations

Time (EDT) Temp. Windchill Dew Point Humidity Pressure Visibility Wind Dir Wind Speed Gust Speed Precip Events Conditions
12:54 AM 26.1 °F 14.0 °F 14.0 °F 60% 29.81 in 10.0 mi West 15.0 mph 20.7 mph N/A   Clear
1:54 AM 26.1 °F 15.0 °F 15.1 °F 63% 29.83 in 10.0 mi West 12.7 mph - N/A   Mostly Cloudy
2:54 AM 26.1 °F 16.8 °F 15.1 °F 63% 29.83 in 10.0 mi West 9.2 mph - N/A   Mostly Cloudy
3:54 AM 25.0 °F 13.6 °F 14.0 °F 63% 29.83 in 10.0 mi WSW 12.7 mph 18.4 mph N/A   Overcast
4:54 AM 24.1 °F 13.7 °F 15.1 °F 69% 29.83 in 5.0 mi West 10.4 mph - 0.00 in Snow Light Snow
5:47 AM 24.8 °F 14.0 °F 17.6 °F 74% 29.81 in 2.0 mi West 11.5 mph - 0.00 in Snow Light Snow
5:54 AM 24.1 °F 12.5 °F 18.0 °F 77% 29.84 in 1.8 mi West 12.7 mph - 0.00 in Snow Light Snow
6:28 AM 23.0 °F 9.6 °F 17.6 °F 80% 29.82 in 3.0 mi West 16.1 mph 23.0 mph 0.00 in Snow Light Snow
6:35 AM 23.0 °F 11.1 °F 17.6 °F 80% 29.82 in 7.0 mi West 12.7 mph 23.0 mph 0.00 in   Overcast
6:54 AM 23.0 °F 11.1 °F 18.0 °F 81% 29.87 in 8.0 mi West 12.7 mph - 0.00 in   Overcast
7:20 AM 23.0 °F 10.6 °F 17.6 °F 80% 29.84 in 1.8 mi West 13.8 mph 24.2 mph 0.00 in Snow Light Snow
7:27 AM 23.0 °F 11.1 °F 17.6 °F 80% 29.84 in 1.5 mi West 12.7 mph 20.7 mph 0.00 in Snow Light Snow
7:38 AM 24.8 °F 11.5 °F 17.6 °F 74% 29.84 in 3.0 mi West 17.3 mph - 0.00 in Snow Light Snow
7:54 AM 24.1 °F 11.5 °F 18.0 °F 77% 29.88 in 9.0 mi West 15.0 mph 21.9 mph 0.00 in   Mostly Cloudy
8:05 AM 24.8 °F 14.0 °F 17.6 °F 74% 29.84 in 10.0 mi West 11.5 mph 20.7 mph N/A   Mostly Cloudy
8:21 AM 24.8 °F 10.7 °F 17.6 °F 74% 29.85 in 1.5 mi West 19.6 mph 25.3 mph 0.00 in Snow Light Snow
8:31 AM 24.8 °F 13.4 °F 17.6 °F 74% 29.85 in 0.8 mi WNW 12.7 mph - 0.00 in Snow Light Snow
8:37 AM 24.8 °F 13.4 °F 17.6 °F 74% 29.85 in 2.0 mi West 12.7 mph - 0.00 in Snow Light Snow
8:44 AM 24.8 °F 12.9 °F 17.6 °F 74% 29.86 in 3.0 mi West 13.8 mph 21.9 mph 0.00 in Snow Light Snow
8:49 AM 24.8 °F 14.6 °F 17.6 °F 74% 29.86 in 1.8 mi West 10.4 mph 21.9 mph 0.00 in Snow Light Snow
8:54 AM 24.1 °F 13.7 °F 19.0 °F 81% 29.90 in 1.2 mi West 10.4 mph - 0.00 in Snow Light Snow
9:11 AM 24.8 °F 12.4 °F 17.6 °F 74% 29.85 in 3.0 mi West 15.0 mph 21.9 mph 0.00 in Snow Light Snow
9:32 AM 26.6 °F 13.4 °F 15.8 °F 64% 29.85 in 10.0 mi West 18.4 mph 31.1 mph 0.00 in   Overcast
9:54 AM 27.0 °F 13.5 °F 14.0 °F 58% 29.90 in 10.0 mi West 19.6 mph 28.8 mph 0.00 in   Overcast
10:38 AM 26.6 °F 11.7 °F 15.8 °F 64% 29.86 in 1.8 mi West 24.2 mph 33.4 mph 0.00 in Snow Light Snow
10:46 AM 28.4 °F 17.0 °F 15.8 °F 59% 29.86 in 3.0 mi West 15.0 mph 33.4 mph 0.00 in Snow Light Snow
10:54 AM 28.9 °F 15.8 °F 14.0 °F 54% 29.90 in 9.0 mi West 20.7 mph 26.5 mph 0.00 in   Overcast
11:30 AM 26.6 °F 12.4 °F 15.8 °F 64% 29.86 in 1.8 mi WNW 21.9 mph 28.8 mph 0.00 in Snow Light Snow
11:37 AM 28.4 °F 14.4 °F 15.8 °F 59% 29.86 in 3.0 mi West 23.0 mph 31.1 mph 0.00 in Snow Light Snow
11:54 AM 28.0 °F 14.6 °F 12.9 °F 53% 29.89 in 7.0 mi West 20.7 mph 27.6 mph 0.00 in   Overcast
12:30 PM 28.4 °F 15.4 °F 14.0 °F 55% 29.85 in 1.5 mi West 19.6 mph 34.5 mph 0.00 in Snow Light Snow
12:41 PM 30.2 °F 17.1 °F 15.8 °F 55% 29.84 in 3.0 mi West 21.9 mph 32.2 mph 0.00 in Snow Light Snow
12:54 PM 30.9 °F 18.7 °F 10.9 °F 43% 29.88 in 9.0 mi West 19.6 mph 29.9 mph 0.00 in   Overcast
1:54 PM 32.0 °F 19.5 °F 10.9 °F 42% 29.87 in 10.0 mi West 21.9 mph 35.7 mph N/A   Overcast
2:50 PM 28.4 °F 16.6 °F 15.8 °F 59% 29.84 in 1.8 mi WNW 16.1 mph 35.7 mph 0.00 in Snow Light Snow
2:54 PM 30.0 °F 19.5 °F 17.1 °F 59% 29.88 in 1.5 mi WNW 13.8 mph 35.7 mph 0.00 in Snow Light Snow
2:59 PM 30.2 °F 15.7 °F 12.2 °F 47% 29.84 in 3.0 mi West 27.6 mph 36.8 mph 0.00 in Snow Light Snow
3:48 PM 28.4 °F 14.7 °F 15.8 °F 59% 29.84 in 1.8 mi WNW 21.9 mph 34.5 mph 0.00 in Snow Light Snow
3:54 PM 28.9 °F 15.1 °F 16.0 °F 58% 29.88 in 1.8 mi West 23.0 mph 34.5 mph 0.00 in Snow Light Snow
3:58 PM 30.2 °F 18.1 °F 15.8 °F 55% 29.84 in 3.0 mi West 18.4 mph 32.2 mph 0.00 in Snow Light Snow
4:54 PM 30.9 °F 19.8 °F 15.1 °F 52% 29.89 in 5.0 mi WNW 16.1 mph 28.8 mph 0.00 in Snow Light Snow
5:54 PM 30.0 °F 17.5 °F 12.0 °F 47% 29.91 in 10.0 mi West 19.6 mph 27.6 mph 0.00 in   Mostly Cloudy
6:54 PM 28.9 °F 16.5 °F 14.0 °F 54% 29.93 in 10.0 mi WNW 18.4 mph 28.8 mph N/A   Mostly Cloudy
7:54 PM 28.0 °F 15.7 °F 15.1 °F 58% 29.95 in 10.0 mi WNW 17.3 mph 23.0 mph N/A   Overcast
8:54 PM 28.0 °F 17.0 °F 15.1 °F 58% 29.97 in 10.0 mi WNW 13.8 mph 24.2 mph N/A   Overcast
9:54 PM 28.0 °F 15.7 °F 15.1 °F 58% 29.97 in 10.0 mi West 17.3 mph 25.3 mph N/A   Mostly Cloudy
10:54 PM 28.0 °F 15.3 °F 15.1 °F 58% 29.97 in 10.0 mi West 18.4 mph 23.0 mph N/A   Overcast
11:54 PM 27.0 °F 14.7 °F 18.0 °F 69% 29.96 in 6.0 mi West 16.1 mph 33.4 mph 0.00 in Snow Light Snow